Location: Sehlde
(52.0974°N, 9.6966°E)
Time: 06:23:44
(UTC+00:00)

Daily predictions for brighter satellites

Satellite Brightness Start Highest point End
(mag) Time Altitude Azimuth Time Altitude Azimuth Time Altitude Azimuth
ATLAS 2AS CENTAUR R/B 2.9 20:23:31 10° NW 20:30:42 72° SW 20:37:23 10° SSE
Spot 2 Rocket 3.6 20:26:55 10° SSE 20:32:00 80° ENE 20:37:08 10° NNW
Cosmos 1544 Rocket 3.6 20:28:06 10° N 20:32:28 88° E 20:36:48 10° S
Meteor 1-24 Rocket 3.6 20:29:33 10° S 20:34:52 82° E 20:40:21 10° NNE
Lacrosse 5 2.2 20:30:33 10° WNW 20:35:35 57° SW 20:40:34 10° SE
USA 234 3.6 20:30:09 10° ESE 20:36:42 73° NNE 20:43:15 10° WNW
Cosmos 1371 Rocket 4.0 20:32:00 10° SSW 20:37:15 86° ESE 20:42:36 10° NNE
Cosmos 1452 Rocket 4.4 20:33:29 10° SSE 20:38:04 31° ESE 20:42:40 10° NE
X-37B 2.1 20:37:32 10° SSW 20:39:22 16° SSE 20:41:13 10° SE
Cosmos 1833 Rocket 4.0 20:37:07 10° SSE 20:41:18 22° ESE 20:45:31 10° NE
Terra 1.9 20:38:37 10° SSE 20:43:20 70° ENE 20:48:06 10° N
Cosmos 2184 Rocket 4.1 20:39:06 10° N 20:45:15 66° ENE 20:51:24 10° SSE
FALCON 9 DEB 3.0 20:42:22 10° WSW 20:45:38 87° NNW 20:48:54 10° ENE
Resurs 01 Rocket 3.8 20:46:45 10° SW 20:50:18 23° W 20:53:53 10° NW
Cosmos 724 4.4 20:47:31 10° SSW 20:53:08 53° ESE 20:58:45 10° NE
CZ-4B R/B 3.4 20:52:04 10° N 20:54:33 26° WNW 20:57:00 10° SW
Helios 1A Rocket 3.2 20:52:09 10° S 20:56:12 65° WSW 21:00:18 10° NNW
Cosmos 1624 Rocket 4.3 20:52:21 10° SSW 20:57:35 74° WNW 21:02:50 10° NNE
Lacrosse 5 rocket 2.9 20:55:29 10° W 20:58:29 21° SW 21:01:35 10° S
Cosmos 1271 Rocket 3.6 20:55:54 10° NNW 20:59:46 49° W 21:03:35 10° S
Cosmos 2082 Rocket 4.0 21:01:14 10° SE 21:04:19 15° E 21:07:24 10° ENE
ERS-1 Rocket 3.4 21:04:18 10° S 21:09:17 61° WSW 21:14:18 10° NNW
RESURS DK-1 2.4 21:05:17 10° NNW 21:09:27 84° ENE 21:13:07 13° SE
Cosmos 2058 Rocket 4.4 21:10:18 10° N 21:14:10 29° ENE 21:17:48 11° SE
CZ-2C R/B 3.7 21:10:58 10° NNE 21:15:38 86° ESE 21:20:09 10° SSW
Cosmos 2056 Rocket 4.4 21:13:08 10° SW 21:18:26 54° WNW 21:23:47 10° NNE
Cosmos 1741 Rocket 4.2 21:15:46 10° NNW 21:21:06 76° WSW 21:25:51 13° SSE
ARIANE 5 R/B 2.8 21:18:10 11° S 21:22:27 70° WSW 21:26:54 10° NNW
Cosmos 968 Rocket 4.2 21:17:38 10° NNW 21:22:39 45° ENE 21:27:23 11° SE
Cosmos 1825 4.5 21:25:01 10° E 21:26:10 11° E 21:27:19 10° ENE
Cosmos 2344 4.2 21:18:27 10° NW 21:27:00 87° NE 21:38:52 10° SE
SL-8 R/B 4.0 21:24:12 10° W 21:28:50 48° SSW 21:33:27 10° ESE
GP-B 3.8 21:26:26 10° NNE 21:30:37 39° E 21:33:53 15° SSE
Cosmos 1455 4.2 21:27:41 10° NW 21:30:46 24° W 21:33:51 10° SW
Cosmos 2074 Rocket 4.4 21:27:33 10° NNW 21:33:44 60° W 21:39:52 10° S
ASTEX 1 3.7 21:33:51 10° NNE 21:38:47 55° E 21:42:45 15° SSE
ADEOS Rocket 4.3 21:33:38 10° SE 21:40:20 43° ENE 21:47:29 10° N
COSMOS 2406 3.9 21:37:53 14° S 21:42:21 38° ESE 21:47:37 10° NE
Cosmos 2369 3.9 21:37:31 10° NNW 21:43:17 72° ENE 21:48:09 15° SE
USA 267 3.3 21:37:10 10° ENE 21:43:37 56° SE 21:50:01 10° SW
SL-16 R/B 3.9 21:39:25 10° NNW 21:44:18 28° NE 21:49:09 10° E
TSX-5 4.5 21:40:33 10° SSW 21:45:08 90° E 21:51:10 10° NE
Cosmos 2228 3.7 21:44:21 10° NNW 21:48:26 47° W 21:52:05 12° SSW
Cosmos 1980 Rocket 2.3 21:46:10 10° NNW 21:51:55 74° ENE 21:56:37 15° SE
Nadezhda 1 Rocket 4.0 21:47:22 10° SSW 21:53:28 82° W 21:59:36 10° N
Cosmos 1606 Rocket 3.8 21:49:15 10° NNW 21:53:32 63° W 21:56:56 16° S
Cosmos 1697 Rocket 2.9 21:48:51 10° NW 21:54:25 63° WSW 21:58:44 17° SSE
Cosmos 1703 4.2 21:52:05 10° SSW 21:55:46 44° WNW 21:59:30 10° N
SJ 16-02 3.7 21:54:15 10° N 21:57:15 17° NE 22:00:15 10° E
Cosmos 1892 3.4 21:55:58 20° SSE 21:58:06 38° E 22:01:37 10° NNE
Cosmos 2154 Rocket 4.5 21:52:29 10° NNW 21:58:33 55° W 22:04:14 12° SSW
Cosmos 2084 Rocket 3.2 21:55:54 10° NW 21:59:47 87° SW 22:02:43 18° SE
Meteor 1-11 4.4 21:57:30 16° S 22:01:50 58° E 22:07:19 10° NNE
USA 276 2.1 22:02:03 10° WSW 22:04:58 50° S 22:07:55 10° E
Cosmos 1328 3.9 22:04:04 14° SSW 22:07:25 74° W 22:11:27 10° N
Cosmos 1331 Rocket 4.0 22:04:29 10° SSW 22:09:48 88° WNW 22:15:09 10° NNE
X-37B 2.4 22:12:09 10° SW 22:12:57 14° SW 22:12:57 14° SW
Cosmos 1408 2.4 22:15:25 23° S 22:17:25 74° E 22:20:52 10° NNE
Lacrosse 5 3.9 22:14:58 10° W 22:17:39 14° WSW 22:20:08 11° SSW
SAR-Lupe-4 4.1 22:14:26 10° N 22:17:57 55° WNW 22:21:00 13° SSW
Cosmos 1726 Rocket 4.2 22:14:08 10° NNW 22:18:16 46° W 22:21:23 17° SSW
USA 234 3.4 22:14:24 15° SE 22:19:53 58° SW 22:26:22 10° WNW
Cosmos 1452 Rocket 4.4 22:14:54 10° SW 22:20:00 49° WNW 22:25:07 10° NNE
ATLAS 2AS CENTAUR R/B 4.5 22:15:53 10° WNW 22:20:22 18° WSW 22:24:42 10° SSW
Terra 3.9 22:18:16 10° SW 22:21:36 19° W 22:24:56 10° NW
FALCON 9 DEB 3.0 22:18:43 10° W 22:22:00 80° N 22:25:17 10° E
Cosmos 2322 Rocket 3.5 22:18:27 10° NNW 22:23:39 35° NE 22:28:50 10° ESE
Cosmos 2333 Rocket 4.5 22:19:28 10° NNW 22:23:52 22° NNE 22:28:15 10° E
Cosmos 1833 Rocket 2.8 22:19:01 10° SW 22:24:38 77° WNW 22:30:18 10° NNE
Cosmos 1867 3.6 22:21:40 10° NW 22:27:11 82° SW 22:31:18 18° SE
Cosmos 2278 3.8 22:22:15 10° NNW 22:28:01 82° ENE 22:32:24 18° SE
SL-8 Rocket 4.1 22:22:52 10° NNW 22:29:08 78° W 22:33:46 19° S
ATLAS 5 CENTAUR R/B 3.0 22:30:25 16° SE 22:30:57 16° ESE 22:33:29 10° ENE
Cosmos 1812 Rocket 4.2 22:27:09 10° N 22:31:31 47° ENE 22:34:25 19° SE
ALOS 2 2.6 22:32:45 22° SSE 22:35:33 83° ENE 22:39:58 10° NNW
Cosmos 1302 Rocket 3.9 22:31:56 16° SSW 22:36:06 80° ESE 22:41:20 10° NNE
Cosmos 2218 Rocket 4.1 22:34:47 10° NNW 22:41:13 76° W 22:45:53 20° S
Cosmos 2366 rocket 4.1 22:38:39 10° NNW 22:44:58 72° W 22:49:34 20° S
Aureole 1 Rocket 4.4 22:38:34 10° NNW 22:45:18 82° ENE 22:51:53 17° SSE
Cosmos 2082 Rocket 2.2 22:42:49 16° SSW 22:47:28 76° ESE 22:53:11 10° NNE
Cosmos 1602 Rocket 4.0 22:45:32 23° SSE 22:47:53 49° E 22:52:04 10° NNE
H-2A R/B 3.5 22:44:29 10° NNE 22:48:41 72° ESE 22:51:10 24° S
Cosmos 2058 Rocket 4.1 22:48:10 10° NNW 22:52:14 37° W 22:55:04 17° SSW
Spot 4 4.5 22:52:43 20° SSW 22:55:43 45° W 23:00:20 10° NNW
Cosmos 1825 2.2 22:58:49 25° SSW 23:00:54 76° W 23:04:40 10° N
Cosmos 2360 Rocket 3.3 22:57:51 10° NNW 23:03:17 42° NE 23:08:39 10° ESE
ERS-2 2.4 23:00:48 10° NNE 23:04:19 51° ESE 23:05:53 28° SSE
Cosmos-2242 3.0 23:01:34 10° N 23:05:50 78° E 23:08:16 25° SSE
Cosmos 1626 Rocket 3.7 23:10:22 22° SSW 23:13:05 67° WNW 23:17:27 10° N
Cosmos 1869 4.2 23:11:34 10° NNW 23:15:10 37° W 23:17:08 22° SSW
Cosmos 1606 2.8 23:12:23 10° N 23:16:15 72° E 23:18:18 26° SSE
Cosmos 1934 Rocket 4.3 23:11:41 10° N 23:17:40 58° ENE 23:22:23 17° SSE
BREEZE-M DEB (TANK) 4.1 23:14:18 10° W 23:17:54 62° S 23:32:31 10° ESE
Cosmos 2058 3.7 23:16:21 22° SSE 23:18:33 40° E 23:22:29 10° NNE
Cosmos 1825 Rocket 3.9 23:22:58 24° SSE 23:25:19 51° E 23:29:32 10° NNE
ADEOS Rocket 3.8 23:20:28 20° S 23:25:36 55° W 23:33:10 10° NNW
COSMOS 2406 4.1 23:20:58 10° SW 23:26:34 50° NW 23:32:10 10° NNE
USA 267 3.5 23:20:17 10° ENE 23:26:50 74° NNW 23:33:21 10° WSW
Cosmos 1633 2.5 23:25:15 29° SSW 23:26:55 73° WNW 23:30:24 10° N
SL-16 R/B 2.2 23:23:19 10° NNW 23:29:01 78° WSW 23:33:08 19° SSE
Cosmos 1980 Rocket 3.7 23:30:58 10° NW 23:35:21 23° WSW 23:38:22 16° SW
SJ 16-02 1.3 23:31:59 10° NNW 23:36:27 86° WSW 23:39:13 23° SSE
Meteor 2-20 4.5 23:32:15 20° SSW 23:36:37 79° W 23:42:45 10° N
USA 276 2.0 23:37:33 10° W 23:40:29 50° S 23:43:25 10° ESE
Meteor 2-2 Rocket 4.4 23:35:31 10° NNW 23:41:32 88° ENE 23:45:54 20° SSE
Cosmos 1821 Rocket 4.3 23:35:34 10° NNW 23:41:42 56° W 23:45:54 20° SSW
Cosmos 2219 Rocket 3.5 23:38:19 10° NNW 23:43:40 40° NE 23:48:59 10° ESE
CZ-2D R/B 4.1 23:45:51 10° NE 23:49:19 18° E 23:52:48 10° SE
Cosmos 1340 Rocket 3.2 23:48:44 25° SSE 23:50:46 53° E 23:54:39 10° NNE
Cosmos 1992 Rocket 4.5 23:48:17 15° SW 23:52:34 57° WNW 23:57:47 10° NNE
